{"data":{"norad_id":41849,"intl_designator":"2016-067B","name":"RAVAN","alt_names":[],"object_type":"PAYLOAD","status":"ACTIVE","operator":null,"country":"US","launch_date":"2016-11-11","launch_site_code":"AFWTR","launch_vehicle":null,"mission":null,"orbit_class":"UNKNOWN","rcs_meters":0.0429,"size_class":null,"mass_kg":null,"dimensions":null,"purposes":["tech_demo"],"wikipedia_slug":null,"has_3d_model":false,"image_url":null,"decayed_at":null,"tle_current":{"epoch":"2026-09-20T04:29:17.684736Z","epoch_age_seconds":41478,"freshness":"FRESH","line1":"1 41849U 16067B   26263.18701024  .00072485  00000+0  71551-3 0  9995","line2":"2 41849  97.9709 164.4319 0004795  60.6175 299.5561 15.65676600542502","mean_motion":15.656766,"eccentricity":0.0004795,"inclination_deg":97.9709,"raan_deg":164.4319,"arg_perigee_deg":60.6175,"mean_anomaly_deg":299.5561,"bstar":0.00071551,"rev_number":54250,"period_min":91.973016649799,"perigee_km":368.05721653325,"apogee_km":374.52992044843,"semimajor_km":6749.4305684908,"source":"CELESTRAK","updated_at":"2026-09-20T09:00:48.031122Z"}}}